Regional Weather Roundup
Issued by NWS Midland/Odessa, TX

Skip options and go directly to product.
Home | Oldest Version | Previous Version | Current Version | All | Graphics & Text | Save Text | Print | Product List | Glossary On

Skip product version selection by date and time.   
497
ASUS44 KMAF 301302
RWRMAF
MIDLAND AREA WEATHER ROUNDUP
NATIONAL WEATHER SERVICE MIDLAND TX
800 AM CDT THU OCT 30 2014

...IN SOUTHWEST TEXAS AND SOUTHEAST NEW MEXICO...

CITY           SKY/WX    TMP DP  RH WIND       PRES   REMARKS
ALPINE         CLEAR     53  50  89 SW5       30.27R
ANDREWS        FAIR      49  48  95 CALM      30.14S
ARTESIA        NOT AVBL
BIG SPRING     CLEAR     59  56  92 SE5       30.15R
CARLSBAD       CLEAR     46  42  86 W7        30.14R
DRYDEN           N/A     64  62  93 NE6       30.11R
FORT STOCKTON  CLEAR     57  54  89 S9        30.14R
GUAD PASS      NOT AVBL
HOBBS          CLEAR     48  48 100 W5        30.16R
MARFA          CLEAR     45  43  93 NW6       30.25S
MIDLAND AIRPK  CLEAR     58  55  89 CALM      30.12S
MIDLAND INTL   CLEAR     56  53  90 S5        30.12R
ODESSA         CLEAR     57  54  89 SW5       30.13R
PECOS          CLEAR     49  46  90 SW6       30.13R
PRESIDIO       FAIR      64  55  71 CALM      30.14R
SEMINOLE       CLEAR     50  49  97 CALM      30.14S
SNYDER         CLEAR     53  52  96 S6        30.12S
WINK           CLEAR     49  45  86 N5        30.12R
$$
...OTHER STATIONS IN TEXAS...

CITY           SKY/WX    TMP DP  RH WIND       PRES   REMARKS
ABILENE        CLEAR     57  51  80 S8        30.12R
AMARILLO       CLEAR     45  43  93 N6        30.16R
AUSTIN         PTCLDY    57  57 100 N3        30.13R
BROWNSVILLE    CLEAR     68  67  96 CALM      30.06R FOG
CORPUS CHRISTI CLOUDY    72  70  93 NE7       30.08R FOG
DALLAS FTW     PTCLDY    54  46  74 SE3       30.14R
DEL RIO        CLEAR     66  62  87 E7        30.09R
EL PASO        CLEAR     52  41  66 N8        30.19R
HOUSTON INT    FAIR      56  51  84 E5        30.13R
LUBBOCK        PTCLDY    47  44  90 NW7       30.12R
SAN ANGELO     CLEAR     54  52  93 CALM      30.12R
SAN ANTONIO    CLOUDY    67  63  87 E6        30.12R
WACO           MOCLDY    52  49  89 CALM      30.14R
WICHITA FALLS  NOT AVBL
$$
...OTHER LOCATIONS IN NEW MEXICO...

CITY           SKY/WX    TMP DP  RH WIND       PRES   REMARKS
ALAMAGORDO     NOT AVBL
ALBUQUERQUE    CLEAR     46  13  26 N8        30.31R
CANNON AFB     CLEAR     47  36  64 N12       30.18R
CLOVIS         CLEAR     46  36  66 N17       30.19R WCI  39
HOLLOMAN AFB   PTCLDY    42  33  70 CALM      30.20R
ROSWELL        CLEAR     45  41  86 NW5       30.17R
RUIDOSO        CLEAR     48  27  43 CALM      30.33R
SANTA FE       PTCLDY    37  11  34 N15       30.32R WCI  28
TRUTH OR CONSE PTCLDY    46  34  62 W3        30.25R
TUCUMCARI      PTCLDY    44  29  55 NW9       30.20R WCI  39
$$

USA.gov is the U.S. government's official web portal to all federal, state and local government web resources and services.